Date String (YYYY-MM-DD hh:mm:ss) UTC,Instrument flags,Ambient pressure (hPa),Sample flow (lpm),Bypass flow (lpm),Sample temperature (°C),Ambient temperature (°C),ASC tube jacket temperature (°C),LED temperature (°C),Box temperature (°C),Sample RH (%),Span deviation,Mass concentration (μg/m³),Mass concentration (μg/m³),Mass concentration (μg/m³)
DateTimeUTC,F1_M11,P_M11,Q1_M11,Q2_M11,T1_M11,T2_M11,T3_M11,T4_M11,T5_M11,U1_M11,ZSPAN_M11,X0_M11,X2_M11,X1_M11
2023-05-24 07:00:00,,0830.3,4.99,0.00,30.0,28.5,00.0,38.4,31.6,22.1,0003.7,0040.27,0026.21,0025.11
2023-05-24 07:01:00,,0830.3,5.00,0.00,30.0,28.5,00.0,38.4,31.6,22.2,0003.7,0040.26,0026.10,0025.02
2023-05-24 07:02:00,,0830.3,4.99,0.00,30.0,28.5,00.0,38.4,31.6,22.3,0003.6,0040.13,0025.94,0024.87
2023-05-24 07:03:00,,0830.3,5.00,0.00,30.1,28.5,00.0,38.4,31.6,22.1,0003.5,0039.70,0025.90,0024.78
2023-05-24 07:04:00,,0830.2,5.00,0.00,30.1,28.5,00.0,38.4,31.7,22.0,0003.5,0039.39,0025.87,0024.71
2023-05-24 07:05:00,,0830.3,4.99,0.00,30.1,28.6,00.0,38.4,31.7,22.0,0003.4,0039.19,0025.78,0024.64
2023-05-24 07:06:00,,0830.2,5.00,0.00,30.1,28.6,00.0,38.4,31.7,22.0,0003.5,0039.01,0025.76,0024.64
2023-05-24 07:07:00,,0830.3,5.00,0.00,30.1,28.6,00.0,38.4,31.7,22.1,0003.5,0040.26,0025.71,0024.59
2023-05-24 07:08:00,,0830.2,5.00,0.00,30.1,27.5,00.0,38.4,31.6,22.2,0003.5,0040.92,0025.63,0024.53
2023-05-24 07:09:00,,0830.3,5.00,0.00,30.0,25.8,00.0,38.3,31.3,22.3,0003.5,0040.76,0025.54,0024.50
2023-05-24 07:10:00,,0830.2,5.01,0.00,29.9,25.3,00.0,38.2,31.1,22.5,0003.6,0040.80,0025.63,0024.58
2023-05-24 07:11:00,,0830.2,5.01,0.00,29.8,25.5,00.0,38.2,31.0,22.7,0003.6,0040.15,0025.74,0024.66
2023-05-24 07:12:00,,0830.2,4.99,0.00,29.7,25.8,00.0,38.2,31.0,22.9,0003.6,0039.86,0026.01,0024.87
2023-05-24 07:13:00,,0830.2,4.99,0.00,29.7,26.2,00.0,38.1,31.0,23.0,0003.6,0040.24,0026.22,0025.06
2023-05-24 07:14:00,,0830.2,5.00,0.00,29.6,26.5,00.0,38.1,31.0,23.1,0003.7,0040.00,0026.41,0025.30
2023-05-24 07:15:00,,0830.2,5.00,0.00,29.6,26.8,00.0,38.1,31.1,23.2,0003.7,0040.11,0026.57,0025.47
2023-05-24 07:16:00,,0830.2,5.01,0.00,29.6,27.1,00.0,38.1,31.1,23.4,0003.7,0040.75,0026.73,0025.60
2023-05-24 07:17:00,,0830.2,5.00,0.00,29.6,27.3,00.0,38.1,31.1,23.5,0003.7,0041.17,0026.77,0025.64
2023-05-24 07:18:00,,0830.2,5.00,0.00,29.6,27.4,00.0,38.1,31.1,23.6,0003.7,0040.24,0026.83,0025.71
2023-05-24 07:19:00,,0830.3,5.00,0.00,29.6,27.6,00.0,38.0,31.1,23.5,0003.8,0039.74,0026.85,0025.77
2023-05-24 07:20:00,,0830.2,5.00,0.00,29.6,27.7,00.0,38.0,31.2,23.4,0003.7,0039.81,0026.88,0025.78
2023-05-24 07:21:00,,0830.2,5.01,0.00,29.6,27.8,00.0,38.0,31.2,23.6,0003.7,0039.82,0026.82,0025.68
2023-05-24 07:22:00,,0830.2,5.00,0.00,29.6,27.8,00.0,38.0,31.2,23.5,0003.6,0039.87,0026.72,0025.58
2023-05-24 07:23:00,,0830.2,4.99,0.00,29.6,27.9,00.0,38.0,31.2,23.3,0003.5,0040.63,0026.60,0025.48
2023-05-24 07:24:00,,0830.2,5.00,0.00,29.7,28.0,00.0,38.0,31.2,23.4,0003.5,0040.22,0026.50,0025.41
2023-05-24 07:25:00,,0830.2,5.00,0.00,29.7,28.0,00.0,38.0,31.2,23.7,0003.6,0040.04,0026.41,0025.28
2023-05-24 07:26:00,,0830.2,5.00,0.00,29.7,28.0,00.0,38.0,31.3,24.5,0003.6,0040.26,0026.27,0025.10
2023-05-24 07:27:00,,0830.2,5.00,0.00,29.7,28.1,00.0,38.0,31.3,25.1,0003.6,0040.59,0026.15,0024.93
2023-05-24 07:28:00,,0830.2,4.99,0.00,29.7,28.1,00.0,38.0,31.3,25.1,0003.5,0040.37,0026.11,0024.80
2023-05-24 07:29:00,,0830.2,5.00,0.00,29.7,28.1,00.0,38.0,31.3,24.8,0003.5,0040.14,0026.01,0024.69
2023-05-24 07:30:00,,0830.2,5.00,0.00,29.7,28.2,00.0,38.0,31.3,24.7,0003.5,0040.10,0025.91,0024.56
2023-05-24 07:31:00,,0830.2,5.00,0.00,29.7,28.2,00.0,38.1,31.3,24.6,0003.4,0040.86,0025.80,0024.44
2023-05-24 07:32:00,,0830.3,5.00,0.00,29.7,28.2,00.0,38.1,31.3,24.4,0003.5,0040.88,0025.69,0024.37
2023-05-24 07:33:00,,0830.2,5.00,0.00,29.8,28.2,00.0,38.1,31.4,24.4,0003.6,0040.47,0025.65,0024.32
2023-05-24 07:34:00,,0830.3,5.00,0.00,29.8,28.2,00.0,38.1,31.4,24.6,0003.7,0039.34,0025.59,0024.28
2023-05-24 07:35:00,,0830.2,5.00,0.00,29.8,28.3,00.0,38.1,31.4,24.7,0003.7,0039.08,0025.54,0024.21
2023-05-24 07:36:00,,0830.2,5.00,0.00,29.8,28.3,00.0,38.1,31.4,24.8,0003.6,0039.51,0025.43,0024.15
2023-05-24 07:37:00,,0830.2,5.00,0.00,29.8,28.3,00.0,38.1,31.4,24.8,0003.6,0039.91,0025.37,0024.12
2023-05-24 07:38:00,,0830.2,5.00,0.00,29.8,28.3,00.0,38.1,31.4,24.8,0003.7,0038.99,0025.35,0024.14
2023-05-24 07:39:00,,0830.2,5.00,0.00,29.8,28.3,00.0,38.1,31.4,24.9,0003.7,0039.47,0025.32,0024.16
2023-05-24 07:40:00,,0830.2,5.00,0.00,29.8,28.3,00.0,38.1,31.4,25.0,0003.8,0038.88,0025.33,0024.14
2023-05-24 07:41:00,,0830.2,5.00,0.00,29.9,28.3,00.0,38.2,31.5,24.8,0003.8,0038.28,0025.32,0024.13
2023-05-24 07:42:00,,0830.2,5.00,0.00,29.9,28.3,00.0,38.2,31.5,24.6,0003.9,0037.42,0025.37,0024.15
2023-05-24 07:43:00,,0830.2,5.00,0.00,29.9,28.3,00.0,38.2,31.5,24.5,0003.8,0037.95,0025.44,0024.17
2023-05-24 07:44:00,,0830.1,4.99,0.00,29.9,28.3,00.0,38.2,31.5,24.2,0003.8,0038.31,0025.50,0024.20
2023-05-24 07:45:00,,0830.1,4.99,0.00,29.9,28.4,00.0,38.2,31.5,24.0,0003.7,0038.37,0025.48,0024.16
2023-05-24 07:46:00,,0830.1,5.00,0.00,29.9,28.4,00.0,38.2,31.5,24.1,0003.7,0038.27,0025.45,0024.15
2023-05-24 07:47:00,,0830.1,5.00,0.00,29.9,28.4,00.0,38.2,31.5,23.9,0003.7,0037.81,0025.44,0024.17
2023-05-24 07:48:00,,0830.1,5.00,0.00,29.9,28.4,00.0,38.2,31.5,23.8,0003.6,0036.63,0025.42,0024.17
2023-05-24 07:49:00,,0830.0,5.00,0.00,29.9,28.4,00.0,38.2,31.5,23.7,0003.7,0036.69,0025.40,0024.14
2023-05-24 07:50:00,,0830.0,5.00,0.00,30.0,28.4,00.0,38.2,31.5,23.7,0003.6,0036.27,0025.35,0024.10
2023-05-24 07:51:00,,0830.1,5.01,0.00,30.0,28.4,00.0,38.3,31.6,23.7,0003.6,0036.47,0025.34,0024.11
2023-05-24 07:52:00,,0830.1,5.00,0.00,30.0,28.4,00.0,38.3,31.5,23.6,0003.5,0036.54,0025.34,0024.11
2023-05-24 07:53:00,,0830.1,5.00,0.00,30.0,28.4,00.0,38.3,31.6,23.4,0003.4,0036.40,0025.31,0024.11
2023-05-24 07:54:00,,0830.1,4.99,0.00,30.0,28.4,00.0,38.3,31.6,23.3,0003.4,0035.41,0025.23,0024.08
2023-05-24 07:55:00,,0830.1,4.99,0.00,30.0,28.4,00.0,38.3,31.6,23.4,0003.5,0035.01,0025.14,0024.06
2023-05-24 07:56:00,,0830.1,4.99,0.00,30.0,28.4,00.0,38.3,31.5,23.5,0003.5,0035.11,0025.16,0024.12
2023-05-24 07:57:00,,0830.1,5.01,0.00,30.0,28.4,00.0,38.3,31.5,23.4,0003.5,0035.69,0025.19,0024.13
2023-05-24 07:58:00,,0830.1,5.01,0.00,30.0,28.4,00.0,38.3,31.5,23.4,0003.5,0036.26,0025.23,0024.10
2023-05-24 07:59:00,,0830.0,5.00,0.00,30.0,28.4,00.0,38.3,31.5,23.4,0003.5,0037.68,0025.28,0024.13
